Date Time,Air Temp,Sky Temp,Clarity,Light Level,Rain Sensor,Readings
2010-12-02 00:01:52,7.9,-6.8,14.6,0.3,2.6,112
2010-12-02 00:06:52,7.9,-8.1,16.0,0.5,3.1,111
2010-12-02 00:11:52,7.7,-7.8,15.5,0.5,4.0,111
2010-12-02 00:16:52,7.6,-7.8,15.4,0.5,3.6,112
2010-12-02 00:21:52,7.4,-7.3,14.8,0.5,4.4,112
2010-12-02 00:26:52,7.4,-6.3,13.8,0.5,4.2,111
2010-12-02 00:31:52,7.4,-7.3,14.7,0.5,3.5,112
2010-12-02 00:36:52,7.3,-7.4,14.7,0.5,2.8,111
2010-12-02 00:41:52,7.2,-7.6,14.8,0.5,2.4,112
2010-12-02 00:46:52,7.2,-7.6,14.7,0.5,2.4,111
2010-12-02 00:51:52,7.1,-7.3,14.4,0.5,2.4,111
2010-12-02 00:56:52,7.2,-7.1,14.3,0.5,2.4,112
2010-12-02 01:01:52,7.2,-7.1,14.4,0.5,3.0,111
2010-12-02 01:06:52,7.3,-6.7,14.0,0.5,2.7,112
2010-12-02 01:11:52,7.4,-6.7,14.1,0.5,2.6,111
2010-12-02 01:16:52,7.4,-5.9,13.3,0.5,4.3,112
2010-12-02 01:21:52,7.6,-5.0,12.6,0.5,4.5,112
2010-12-02 01:26:52,7.7,-3.4,11.1,0.5,6.1,112
2010-12-02 01:31:52,7.7,1.0,6.7,0.4,8.6,111
2010-12-02 01:36:52,7.7,2.2,5.5,0.4,5.2,111
2010-12-02 01:41:52,7.7,2.6,5.2,0.4,13.6,111
2010-12-02 01:46:52,7.9,2.4,5.5,0.4,7.9,112
2010-12-02 01:51:52,7.9,0.2,7.7,0.4,3.7,111
2010-12-02 01:56:53,7.7,-0.0,7.8,0.4,6.8,111
2010-12-02 02:01:53,7.8,1.1,6.7,0.4,8.6,111
2010-12-02 02:06:53,7.8,2.2,5.6,0.4,12.1,111
2010-12-02 02:11:53,7.9,2.0,5.9,0.4,9.7,111
2010-12-02 02:16:53,7.8,0.3,7.5,0.5,7.2,112
2010-12-02 02:21:53,7.7,0.5,7.2,0.5,7.2,111
2010-12-02 02:26:53,7.7,0.0,7.6,0.5,6.8,112
2010-12-02 02:31:53,7.7,-0.2,7.9,0.6,5.0,111
2010-12-02 02:36:53,7.6,0.2,7.3,0.6,4.6,111
2010-12-02 02:41:53,7.5,1.4,6.1,0.6,7.6,111
2010-12-02 02:46:53,7.6,0.9,6.7,0.6,5.4,111
2010-12-02 02:51:53,7.5,1.6,5.9,0.5,5.2,111
2010-12-02 02:56:53,7.6,0.8,6.8,0.5,4.0,112
2010-12-02 03:01:53,7.5,0.3,7.2,0.6,2.8,111
2010-12-02 03:06:53,7.4,0.4,7.0,0.6,2.9,112
2010-12-02 03:11:53,7.3,0.6,6.7,0.5,2.7,111
2010-12-02 03:16:53,7.3,1.2,6.0,0.5,2.6,111
2010-12-02 03:21:53,7.2,0.7,6.4,0.5,2.5,111
2010-12-02 03:26:53,7.1,0.5,6.6,0.5,2.3,111
2010-12-02 03:31:53,7.0,0.1,6.9,0.6,2.0,112
2010-12-02 03:36:53,6.8,0.1,6.7,0.6,1.9,111
2010-12-02 03:41:53,6.9,0.4,6.5,0.6,2.0,112
2010-12-02 03:46:53,7.4,0.7,6.7,0.6,1.8,111
2010-12-02 03:51:53,6.7,0.4,6.4,0.6,2.4,112
2010-12-02 03:56:53,6.7,-0.8,7.5,0.5,2.4,111
2010-12-02 04:01:53,6.7,-5.2,11.9,0.5,2.3,112
2010-12-02 04:06:53,6.7,-7.9,14.6,0.5,2.0,112
2010-12-02 04:11:53,6.6,-8.1,14.7,0.6,1.9,111
2010-12-02 04:16:53,6.6,-7.9,14.5,0.6,2.3,112
2010-12-02 04:21:53,6.6,-8.2,14.8,0.6,2.0,111
2010-12-02 04:26:53,6.6,-8.1,14.6,0.6,2.0,112
2010-12-02 04:31:53,6.5,-8.3,14.8,0.6,2.1,111
2010-12-02 04:36:53,6.5,-7.9,14.4,0.5,2.1,112
2010-12-02 04:41:53,6.5,-7.7,14.3,0.6,2.0,111
2010-12-02 04:46:53,6.7,-7.8,14.4,0.6,2.3,111
2010-12-02 04:51:53,6.6,-8.1,14.7,0.6,2.1,111
2010-12-02 04:56:53,6.6,-7.8,14.4,0.5,2.5,112
2010-12-02 05:01:53,6.6,-8.2,14.8,0.5,2.0,111
2010-12-02 05:06:53,6.7,-8.2,14.9,0.5,1.8,112
2010-12-02 05:11:53,6.5,-8.1,14.6,0.5,1.7,111
2010-12-02 05:16:53,6.5,-7.9,14.4,0.5,2.0,112
2010-12-02 05:21:53,6.5,-8.0,14.5,0.5,2.0,112
2010-12-02 05:26:53,6.5,-7.8,14.3,0.5,2.2,111
2010-12-02 05:31:53,6.5,-7.9,14.4,0.5,2.0,112
2010-12-02 05:36:53,6.5,-7.8,14.3,0.4,1.8,111
2010-12-02 05:41:53,6.6,-8.0,14.6,0.4,1.8,111
2010-12-02 05:46:53,6.6,-7.9,14.5,0.4,1.8,112
2010-12-02 05:51:53,6.7,-7.9,14.6,0.4,1.7,112
2010-12-02 05:56:53,6.7,-7.8,14.5,0.4,1.9,112
2010-12-02 06:01:53,6.8,-7.9,14.6,0.4,2.1,112
2010-12-02 06:06:53,6.8,-8.2,14.9,0.4,2.5,111
2010-12-02 06:11:53,6.8,-8.1,14.9,0.4,2.6,112
2010-12-02 06:16:53,6.9,-7.0,13.8,0.4,3.6,111
2010-12-02 06:21:53,6.9,-8.0,14.9,0.4,3.1,112
2010-12-02 06:26:53,6.8,-8.3,15.1,0.4,3.0,112
2010-12-02 06:31:53,6.8,-8.2,14.9,0.4,2.8,111
2010-12-02 06:36:53,6.8,-8.1,14.9,0.4,3.0,112
2010-12-02 06:41:53,6.7,-8.1,14.9,0.5,2.8,112
2010-12-02 06:46:53,6.8,-7.9,14.7,0.5,3.8,111
2010-12-02 06:51:53,6.8,-8.2,14.9,0.7,3.2,112
2010-12-02 06:56:53,6.8,-5.9,12.7,1.0,3.6,112
2010-12-02 07:01:53,6.8,-7.5,14.2,1.6,2.6,111
2010-12-02 07:06:53,6.8,-7.3,14.1,2.6,2.9,112
2010-12-02 07:11:53,6.8,-8.5,15.3,4.7,2.1,112
2010-12-02 07:16:53,6.7,-8.3,15.1,8.7,2.5,111
2010-12-02 07:21:53,6.7,-8.3,15.0,14.2,3.0,112
2010-12-02 07:26:53,6.7,-8.8,15.5,19.2,2.6,112
2010-12-02 07:31:53,6.7,-8.6,15.3,22.9,2.7,112
2010-12-02 07:36:53,6.8,-8.8,15.6,25.9,2.2,111
2010-12-02 07:41:53,6.7,-9.0,15.8,27.7,1.8,112
2010-12-02 07:46:53,6.7,-9.4,16.1,28.9,1.7,112
2010-12-02 07:51:53,6.7,-9.0,15.7,29.7,1.7,112
2010-12-02 07:56:53,6.6,-9.1,15.7,30.6,1.8,112
2010-12-02 08:01:53,6.6,-9.2,15.8,31.1,1.8,111
2010-12-02 08:06:53,6.6,-9.6,16.3,31.3,1.9,112
2010-12-02 08:11:53,6.6,-9.6,16.2,31.4,1.8,112
2010-12-02 08:16:53,6.5,-9.4,15.8,31.5,1.9,111
2010-12-02 08:21:53,6.5,-9.2,15.7,31.6,2.1,112
2010-12-02 08:26:53,6.6,-9.3,15.9,31.8,1.9,112
2010-12-02 08:31:53,6.6,-9.3,15.9,31.9,1.7,112
2010-12-02 08:36:53,6.6,-9.2,15.7,31.9,1.7,112
2010-12-02 08:41:53,6.6,-9.1,15.7,31.9,1.7,112
2010-12-02 08:46:53,6.6,-9.0,15.6,31.9,1.7,111
2010-12-02 08:51:53,6.6,-9.0,15.5,32.0,1.8,112
2010-12-02 08:56:53,6.6,-8.8,15.3,32.0,1.9,112
2010-12-02 09:01:53,6.5,-9.0,15.5,32.0,1.7,112
2010-12-02 09:06:53,6.5,-8.9,15.4,32.1,1.6,111
2010-12-02 09:11:53,6.6,-8.7,15.3,32.2,1.6,112
2010-12-02 09:16:53,6.7,-8.9,15.6,32.3,1.7,112
2010-12-02 09:21:53,6.7,-8.8,15.5,32.3,1.8,112
2010-12-02 09:26:53,6.8,-9.2,16.0,32.4,1.8,111
2010-12-02 09:31:53,6.8,-9.3,16.1,32.4,1.8,112
2010-12-02 09:36:53,7.0,-9.2,16.2,32.4,1.9,112
2010-12-02 09:41:53,7.1,-9.8,16.9,32.4,2.0,112
2010-12-02 09:46:53,7.0,-10.1,17.1,32.5,2.1,112
2010-12-02 09:51:53,7.3,-9.8,17.1,32.5,2.2,112
2010-12-02 09:56:53,7.4,-10.1,17.4,32.5,2.2,111
2010-12-02 10:01:53,7.4,-9.9,17.3,32.4,2.3,113
2010-12-02 10:06:53,7.4,-9.0,16.4,32.4,2.3,111
2010-12-02 10:11:53,7.4,-9.3,16.7,32.5,2.3,112
2010-12-02 10:16:53,7.4,-10.1,17.5,32.5,2.3,112
2010-12-02 10:21:53,7.5,-9.8,17.3,32.5,2.3,112
2010-12-02 10:26:53,7.6,-9.7,17.3,32.5,2.4,111
2010-12-02 10:31:53,7.7,-9.4,17.1,32.5,2.5,112
2010-12-02 10:36:53,7.8,-9.6,17.4,32.5,2.6,112
2010-12-02 10:41:53,7.8,-9.2,17.0,32.5,2.6,112
2010-12-02 10:46:53,7.9,-9.5,17.4,32.5,2.7,112
2010-12-02 10:51:53,7.9,-8.6,16.6,32.5,2.7,112
2010-12-02 10:56:53,7.9,-7.9,15.7,32.4,2.5,111
2010-12-02 11:01:53,7.9,-8.4,16.3,32.5,2.5,112
2010-12-02 11:06:53,7.8,-7.7,15.5,32.4,2.4,111
2010-12-02 11:11:53,7.7,-7.4,15.2,32.4,2.4,112
2010-12-02 11:16:53,7.8,-7.6,15.4,32.4,2.4,111
2010-12-02 11:21:53,7.9,-6.7,14.5,32.5,2.5,112
2010-12-02 11:26:53,8.1,-6.4,14.5,32.5,2.7,111
2010-12-02 11:31:53,8.2,-6.5,14.8,32.5,2.7,112
2010-12-02 11:36:53,8.4,-7.4,15.8,32.5,2.8,111
2010-12-02 11:41:53,8.6,-7.0,15.6,32.4,2.8,112
2010-12-02 11:46:53,8.6,-6.7,15.2,32.4,2.8,111
2010-12-02 11:51:53,8.6,-7.0,15.6,32.4,2.6,112
2010-12-02 11:56:53,8.5,-6.4,14.8,32.4,3.1,111
2010-12-02 12:01:53,8.8,-6.7,15.5,32.4,3.2,112
2010-12-02 12:06:53,9.0,-7.1,16.0,32.4,3.0,111
2010-12-02 12:11:53,8.8,-7.8,16.7,32.5,2.7,111
2010-12-02 12:16:53,9.0,-9.3,18.4,32.5,2.3,112
2010-12-02 12:21:53,9.1,-7.4,16.5,32.5,2.3,112
2010-12-02 12:26:53,9.1,-8.0,17.1,32.5,2.3,111
2010-12-02 12:31:53,8.9,-8.0,16.9,32.5,2.4,112
2010-12-02 12:36:53,8.7,-7.5,16.2,32.5,2.3,112
2010-12-02 12:41:53,8.6,-7.5,16.2,32.4,2.4,111
2010-12-02 12:46:53,8.4,-7.3,15.7,32.4,2.5,111
2010-12-02 12:51:53,8.1,-6.5,14.7,32.3,2.7,112
2010-12-02 12:56:53,8.1,-7.2,15.3,32.3,2.7,111
2010-12-02 13:01:53,8.0,-7.2,15.1,32.4,2.7,112
2010-12-02 13:06:53,7.9,-6.8,14.7,32.4,2.8,112
2010-12-02 13:11:53,8.0,-6.9,14.9,32.4,2.7,111
2010-12-02 13:16:53,8.1,-6.8,15.0,32.3,2.7,112
2010-12-02 13:21:53,8.2,-7.0,15.2,32.4,2.7,112
2010-12-02 13:26:53,8.2,-6.0,14.2,32.4,2.7,111
2010-12-02 13:31:53,8.4,-5.9,14.4,32.4,2.8,112
2010-12-02 13:36:53,8.6,-6.0,14.5,32.4,2.4,112
2010-12-02 13:41:53,8.6,-7.1,15.7,32.4,2.4,111
2010-12-02 13:46:53,8.5,-7.3,15.8,32.5,2.4,112
2010-12-02 13:51:53,8.5,-7.4,15.9,32.5,2.5,111
2010-12-02 13:56:53,8.5,-7.7,16.3,32.4,2.4,112
2010-12-02 14:01:53,8.4,-8.6,17.0,32.4,2.4,112
2010-12-02 14:06:53,8.4,-10.0,18.4,32.4,2.3,111
2010-12-02 14:11:53,10.6,-13.1,23.8,32.5,2.3,112
2010-12-02 14:16:53,12.7,-12.7,25.4,32.5,2.3,112
2010-12-02 14:21:53,13.1,-12.6,25.7,32.5,2.4,111
2010-12-02 14:26:53,13.4,-10.8,24.2,32.5,2.3,112
2010-12-02 14:31:53,13.5,-10.5,24.0,32.4,2.3,112
2010-12-02 14:36:53,13.4,-13.7,27.0,32.4,2.3,111
2010-12-02 14:41:53,13.2,-16.9,30.1,32.4,2.3,112
2010-12-02 14:46:53,12.9,-14.6,27.5,32.4,2.3,111
2010-12-02 14:51:53,12.8,-14.7,27.5,32.3,2.3,112
2010-12-02 14:56:53,12.7,-17.8,30.5,32.3,2.3,111
2010-12-02 15:01:53,12.8,-12.5,25.3,32.3,2.3,111
2010-12-02 15:06:53,12.8,-14.6,27.4,32.2,2.3,112
2010-12-02 15:11:53,12.8,-12.7,25.4,32.1,2.3,111
2010-12-02 15:16:53,12.8,-11.4,24.1,32.1,2.3,111
2010-12-02 15:21:53,12.7,-13.4,26.1,32.0,2.3,112
2010-12-02 15:26:53,12.7,-15.3,28.0,32.0,2.3,111
2010-12-02 15:31:53,12.6,-16.9,29.5,32.0,2.3,112
2010-12-02 15:36:53,12.5,-18.0,30.5,31.9,2.4,111
2010-12-02 15:41:53,12.3,-18.3,30.6,31.8,2.6,112
2010-12-02 15:46:53,12.3,-17.5,29.7,31.5,2.5,111
2010-12-02 15:51:53,12.4,-11.6,24.0,31.1,2.6,112
2010-12-02 15:56:53,12.7,-10.1,22.7,30.5,2.5,112
2010-12-02 16:01:53,12.7,-10.1,22.8,29.7,2.3,111
2010-12-02 16:06:53,12.8,-10.1,22.9,28.8,2.3,113
2010-12-02 16:11:53,12.9,-10.6,23.4,27.7,2.3,111
2010-12-02 16:16:53,12.8,-13.3,26.1,26.0,2.3,112
2010-12-02 16:21:53,12.7,-16.1,28.8,23.4,2.3,111
2010-12-02 16:26:53,12.7,-17.6,30.2,19.4,2.5,111
2010-12-02 16:31:53,12.7,-15.3,28.0,14.1,2.6,112
2010-12-02 16:36:53,12.5,-11.9,24.4,8.7,2.7,111
2010-12-02 16:41:53,12.5,-11.1,23.6,4.9,2.6,112
2010-12-02 16:46:53,12.5,-10.9,23.4,2.7,2.6,111
2010-12-02 16:51:53,12.7,-9.7,22.5,1.5,2.5,112
2010-12-02 16:56:54,12.9,-13.9,26.8,0.9,2.3,111
2010-12-02 17:01:54,12.9,-12.6,25.5,0.6,2.3,112
2010-12-02 17:06:54,12.9,-11.8,24.7,0.4,2.3,111
2010-12-02 17:11:54,12.8,-13.4,26.2,0.4,2.3,111
2010-12-02 17:16:54,12.9,-11.8,24.7,0.3,2.3,112
2010-12-02 17:21:54,12.8,-11.9,24.8,0.3,2.3,111
2010-12-02 17:26:54,12.9,-10.7,23.6,0.3,2.3,111
2010-12-02 17:31:54,12.8,-10.7,23.5,0.4,2.3,112
2010-12-02 17:36:54,12.7,-9.9,22.6,0.4,2.3,112
2010-12-02 17:41:54,12.7,-10.7,23.5,0.4,2.3,112
2010-12-02 17:46:54,12.8,-10.8,23.7,0.4,2.3,112
2010-12-02 17:51:54,13.0,-11.2,24.2,0.4,2.3,111
2010-12-02 17:56:54,13.0,-18.0,31.0,0.3,2.3,112
2010-12-02 18:01:54,12.9,-19.1,32.0,0.3,2.3,112
2010-12-02 18:06:54,12.8,-19.2,32.0,0.3,2.3,112
2010-12-02 18:11:54,12.7,-19.5,32.2,0.3,2.3,111
2010-12-02 18:16:54,12.7,-19.7,32.4,0.3,2.6,112
2010-12-02 18:21:54,12.7,-12.0,24.8,0.4,2.4,111
2010-12-02 18:26:54,12.8,-10.5,23.3,0.3,2.3,112
2010-12-02 18:31:54,12.8,-9.2,22.0,0.4,2.3,112
2010-12-02 18:36:54,12.8,-8.4,21.2,0.4,2.3,111
2010-12-02 18:41:54,12.9,-8.7,21.6,0.4,2.3,112
2010-12-02 18:46:54,13.0,-8.9,21.9,0.4,2.3,112
2010-12-02 18:51:54,13.2,-9.2,22.4,0.4,2.3,112
2010-12-02 18:56:54,13.2,-12.8,26.0,0.3,2.3,111
2010-12-02 19:01:54,13.0,-16.9,29.9,0.3,2.3,112
2010-12-02 19:06:54,12.9,-18.5,31.4,0.3,2.3,111
2010-12-02 19:11:54,12.8,-18.4,31.2,0.3,2.3,112
2010-12-02 19:16:54,12.7,-18.2,30.9,0.3,2.3,112
2010-12-02 19:21:54,12.7,-15.5,28.2,0.3,2.4,111
2010-12-02 19:26:54,12.7,-11.6,24.4,0.3,2.4,112
2010-12-02 19:31:54,12.6,-10.3,22.9,0.3,2.3,112
2010-12-02 19:36:54,12.5,-12.4,24.9,0.3,2.3,111
2010-12-02 19:41:54,12.4,-17.7,30.1,0.2,2.4,111
2010-12-02 19:46:54,12.4,-20.8,33.2,0.2,2.7,112
2010-12-02 19:51:54,12.4,-21.6,34.0,0.2,2.6,111
2010-12-02 19:56:54,12.4,-21.4,33.7,0.2,2.5,112
2010-12-02 20:01:54,12.2,-21.4,33.6,0.2,2.5,112
2010-12-02 20:06:54,12.2,-15.2,27.4,0.3,2.4,111
2010-12-02 20:11:54,12.2,-10.4,22.7,0.3,2.6,112
2010-12-02 20:16:54,12.3,-10.2,22.5,0.3,2.6,112
2010-12-02 20:21:54,12.3,-9.7,22.0,0.3,2.7,111
2010-12-02 20:26:54,12.3,-9.1,21.3,0.4,2.6,112
2010-12-02 20:31:54,12.1,-9.3,21.4,0.3,2.6,112
2010-12-02 20:36:54,12.1,-9.6,21.7,0.3,2.5,111
2010-12-02 20:41:54,12.1,-9.2,21.3,0.3,2.5,112
2010-12-02 20:46:54,12.3,-9.0,21.2,0.3,2.7,111
2010-12-02 20:51:54,12.4,-9.0,21.5,0.3,2.6,112
2010-12-02 20:56:54,12.4,-10.4,22.8,0.2,2.5,112
2010-12-02 21:01:54,12.4,-11.1,23.5,0.2,2.6,112
2010-12-02 21:06:54,12.4,-10.9,23.3,0.2,2.7,112
2010-12-02 21:11:54,12.4,-10.3,22.7,0.2,2.7,111
2010-12-02 21:16:54,12.4,-11.1,23.6,0.2,2.7,112
2010-12-02 21:21:54,12.5,-10.8,23.3,0.2,2.6,112
2010-12-02 21:26:54,12.4,-18.7,31.1,0.2,2.5,111
2010-12-02 21:31:54,12.2,-11.4,23.6,0.2,2.3,112
2010-12-02 21:36:54,11.9,-8.5,20.4,0.2,2.3,111
2010-12-02 21:41:54,9.4,-8.4,17.9,0.2,2.2,112
2010-12-02 21:46:54,8.2,-10.7,18.9,0.2,2.3,112
2010-12-02 21:51:54,7.9,-11.0,18.9,0.2,2.4,111
2010-12-02 21:56:54,7.7,-10.4,18.1,0.2,2.5,112
2010-12-02 22:01:54,9.4,-12.4,21.8,0.2,2.3,111
2010-12-02 22:06:54,11.5,-13.7,25.2,0.2,2.2,112
2010-12-02 22:11:54,12.1,-15.4,27.5,0.2,2.2,111
2010-12-02 22:16:54,12.3,-23.4,35.7,0.1,2.3,111
2010-12-02 22:21:54,12.2,-23.6,35.8,0.1,2.3,112
2010-12-02 22:26:54,11.9,-21.0,32.9,0.2,2.3,111
2010-12-02 22:31:54,11.8,-18.6,30.4,0.2,2.2,112
2010-12-02 22:36:54,11.8,-21.9,33.7,0.1,2.2,112
2010-12-02 22:41:54,11.9,-19.9,31.8,0.1,2.2,111
2010-12-02 22:46:54,12.1,-18.5,30.6,0.2,2.3,112
2010-12-02 22:51:54,12.2,-17.6,29.8,0.2,2.3,111
2010-12-02 22:56:54,12.2,-22.8,35.0,0.1,2.3,112
2010-12-02 23:01:54,12.1,-25.5,37.6,0.1,2.3,111
2010-12-02 23:06:54,12.0,-25.4,37.3,0.1,2.3,112
2010-12-02 23:11:54,11.8,-25.0,36.9,0.1,2.2,111
2010-12-02 23:16:54,11.8,-24.5,36.3,0.1,2.1,111
2010-12-02 23:21:54,11.7,-24.3,35.9,0.2,2.1,112
2010-12-02 23:26:54,11.6,-23.7,35.3,0.2,2.0,111
2010-12-02 23:31:54,11.6,-23.3,35.0,0.2,2.1,111
2010-12-02 23:36:54,11.7,-22.8,34.5,0.2,2.1,112
2010-12-02 23:41:54,11.8,-22.4,34.1,0.2,2.1,111
2010-12-02 23:46:54,11.8,-20.4,32.2,0.2,2.2,112
2010-12-02 23:51:54,11.8,-17.0,28.9,0.3,2.2,112
2010-12-02 23:56:54,12.0,-16.9,28.9,0.3,2.3,111
